Weather History for KAHN - January, 2014

Change the Weather History Date:

Thursday, January 16, 2014

  Actual Average Record
Temperature  
Mean Temperature 39 °F 43 °F  
Max Temperature 54 °F 54 °F 76 °F (1952)
Min Temperature 24 °F 33 °F 9 °F (1927)
Degree Days  
Heating Degree Days 26 22  
Month to date heating degree days 426 352  
Since 1 July heating degree days 1527 1442  
Moisture  
Dew Point 14 °F    
Average Humidity 43    
Maximum Humidity 69    
Minimum Humidity 17    
Precipitation  
Precipitation 0.00 in 0.13 in 2.02 in (1954)
Month to date precipitation 4.56 1.99  
Year to date precipitation 4.56 1.99  
Snow  
Snow 0.00 in 0.10 in 0.00 in (2002)
Month to date snowfall 0.0 0.7  
Since 1 July snowfall 0.0 0.8  
Snow Depth 0.00 in    
Sea Level Pressure  
Sea Level Pressure 30.04 in    
Wind  
Wind Speed 6 mph (West)    
Max Wind Speed 13 mph    
Max Gust Speed 17 mph    
Visibility 10 miles    
Events      
T = Trace of Precipitation, MM = Missing Value Source: NWS Daily Summary

Daily Weather History Graph

Daily Weather History Graph

Search for Another Location

Airport or City:

Trip Planner

Search our weather history database for the weather conditions in past years. The results will help you decide how hot, cold, wet, or windy it might be!

Date:

Astronomy

Jan. 16, 2014 Rise Set
Actual Time 7:38 AM EST 5:48 PM EST
Civil Twilight 7:11 AM EST 6:15 PM EST
Nautical Twilight 6:40 AM EST 6:46 PM EST
Astronomical Twilight 6:10 AM EST 7:16 PM EST
Moon 6:34 PM EST (1/16) 7:35 AM EST (1/16)
Length of Visible Light 11h 04m
Length of Day
10h 10m
Full, 100% of the Moon is Illuminated
Jan 16
Full
Jan 24
Last Quarter
Jan 30
New
Feb 6
First Quarter
Feb 14
Full

Hourly Weather History & Observations

Time (EST) Temp. Windchill Dew Point Humidity Pressure Visibility Wind Dir Wind Speed Gust Speed Precip Events Conditions
12:51 AM 30.9 °F 23.5 °F 19.9 °F 64% 30.01 in 10.0 mi WNW 8.1 mph - N/A   Clear
1:51 AM 30.0 °F 25.2 °F 18.0 °F 61% 30.02 in 10.0 mi WNW 4.6 mph - N/A   Clear
2:51 AM 28.0 °F 24.2 °F 19.0 °F 69% 30.02 in 10.0 mi West 3.5 mph - N/A   Clear
3:51 AM 27.0 °F 21.6 °F 18.0 °F 69% 30.02 in 10.0 mi West 4.6 mph - N/A   Clear
4:51 AM 27.0 °F 20.5 °F 18.0 °F 69% 30.03 in 10.0 mi West 5.8 mph - N/A   Clear
5:51 AM 27.0 °F 19.5 °F 17.1 °F 66% 30.04 in 10.0 mi WNW 6.9 mph - N/A   Clear
6:51 AM 26.1 °F 19.4 °F 16.0 °F 66% 30.06 in 10.0 mi WNW 5.8 mph - N/A   Clear
7:51 AM 24.1 °F 18.2 °F 16.0 °F 71% 30.07 in 9.0 mi West 4.6 mph - N/A   Clear
8:51 AM 28.0 °F 20.0 °F 16.0 °F 61% 30.09 in 9.0 mi WNW 8.1 mph - N/A   Clear
9:51 AM 32.0 °F 24.2 °F 16.0 °F 52% 30.11 in 10.0 mi WNW 9.2 mph - N/A   Clear
10:51 AM 36.0 °F 30.3 °F 16.0 °F 44% 30.11 in 10.0 mi West 6.9 mph - N/A   Clear
11:51 AM 39.0 °F 35.7 °F 12.0 °F 33% 30.08 in 10.0 mi Variable 4.6 mph - N/A   Clear
12:51 PM 41.0 °F 38.0 °F 8.1 °F 26% 30.03 in 10.0 mi Variable 4.6 mph - N/A   Clear
1:51 PM 44.1 °F 39.5 °F 9.0 °F 24% 30.01 in 10.0 mi West 8.1 mph - N/A   Clear
2:51 PM 45.0 °F 41.2 °F 8.1 °F 22% 30.00 in 10.0 mi Variable 6.9 mph - N/A   Clear
3:51 PM 46.0 °F 41.9 °F 8.1 °F 21% 30.00 in 10.0 mi WSW 8.1 mph - N/A   Clear
4:51 PM 51.1 °F - 9.0 °F 18% 30.01 in 10.0 mi Variable 6.9 mph - N/A   Clear
5:51 PM 51.1 °F - 10.0 °F 19% 30.02 in 10.0 mi SW 5.8 mph - N/A   Clear
6:51 PM 46.0 °F 44.8 °F 10.9 °F 24% 30.02 in 10.0 mi SSW 3.5 mph - N/A   Clear
7:51 PM 43.0 °F 40.3 °F 14.0 °F 31% 30.01 in 10.0 mi South 4.6 mph - N/A   Clear
8:51 PM 39.0 °F - 12.0 °F 33% 30.05 in 10.0 mi Calm Calm - N/A   Clear
9:51 PM 43.0 °F 40.3 °F 12.9 °F 30% 30.06 in 10.0 mi SW 4.6 mph - N/A   Clear
10:51 PM 41.0 °F 39.0 °F 12.9 °F 32% 30.06 in 10.0 mi SW 3.5 mph - N/A   Clear
11:51 PM 37.9 °F 35.5 °F 12.9 °F 36% 30.05 in 10.0 mi SSW 3.5 mph - N/A   Clear